Regional Weather Roundup
Issued by NWS

Home | Current Version | Previous Version | Text Only | Print | Product List | Glossary On
Versions: 1 2 3 4 5 6 7 8 9 10 11 12 13 14 15 16 17 18 19 20 21 22 23 24 25 26 27
000
ASUS44 KJAN 031110
RWRMS

MISSISSIPPI HOURLY WEATHER ROUNDUP
NATIONAL WEATHER SERVICE JACKSON MS
600 AM CDT TUE AUG 03 2021

NOTE: "FAIR: INDICATES FEW OR NO CLOUDS BELOW 12,000 FEET WITH NO
SIGNIFICANT WEATHER AND/OR OBSTRUCTIONS TO VISIBILITY.

MSZ001>002-007>008-010>013-018>021-025>028-034>036-031200-
NORTHWEST MISSISSIPPI

CITY           SKY/WX    TMP DP  RH WIND       PRES   REMARKS
BATESVILLE     FAIR      68  66  94 CALM      30.00R FOG
CLARKSDALE     PTCLDY    70  70 100 CALM      30.00S FOG
GREENWOOD      CLEAR     70  67  90 CALM      29.98S FOG
GREENVILLE     CLEAR     69  68  96 NE3       29.98R FOG
OLIVE BRANCH   PTCLDY    66  64  94 NE5       30.02R
OXFORD         PTCLDY    66  64  94 CALM      30.02S
TUNICA           N/A     66  64  94 N5        30.02S
WINONA         FAIR      68  68 100 CALM      29.99R FOG
$$

MSZ003>006-009-014>017-022>024-029>033-037>039-031200-
NORTHEAST MISSISSIPPI

CITY           SKY/WX    TMP DP  RH WIND       PRES   REMARKS
ABERDEEN       FAIR      68  68 100 N5        29.99S FOG
COLUMBUS AFB   PTCLDY    69  69 100 CALM      29.96S
CORINTH        MOSUNNY   64  63  94 CALM      30.02S
GOLDN TRIANGLE CLEAR     68  68 100 CALM      29.98S FOG
STARKVILLE     FOG       66  66 100 CALM      29.98R VSB 1/4
TUPELO         PTCLDY    68  65  90 N5        29.99S
$$

MSZ040-058-031200-
CENTRAL MISSISSIPPI

CITY           SKY/WX    TMP DP  RH WIND       PRES   REMARKS
JACKSON INTL   MOCLDY    73  71  93 NE3       29.97S
JACKSON HAWKNS MOCLDY    75  73  93 CALM      29.98R
MERIDIAN KEY   CLOUDY    70  68  93 N5        29.97R
MERIDIAN NAS   PTCLDY    69  69 100 CALM      29.98R
RAYMOND        PTSUNNY   73  73 100 CALM      29.96S
VICKSBURG VKS  CLOUDY    75  75 100 CALM      29.95R
$$

MSZ059>079-031200-
SOUTH MISSISSIPPI

CITY           SKY/WX    TMP DP  RH WIND       PRES   REMARKS
BROOKHAVEN     CLOUDY    73  73 100 CALM      29.99R FOG
HATTIESBURG    CLOUDY    75  71  87 CALM      29.96S
LAUREL         MOSUNNY   72  69  88 E3        29.96S
MCCOMB         CLOUDY    74  74 100 CALM      29.96S FOG
NATCHEZ        FOG       73  73 100 NE3       29.96S VSB 3/4
PINE BELT      CLOUDY    73  73 100 CALM      29.97S
$$

MSZ080>082-031200-
COASTAL MISSISSIPPI

CITY           SKY/WX    TMP DP  RH WIND       PRES   REMARKS
BILOXI         MOCLDY    75  74  98 NE3       29.92S
PASCAGOULA     CLOUDY    75  74  96 CALM      29.94R
GULFPORT       LGT RAIN  75  74  96 N5        29.93R
$$

LAZ007>009-015>016-023>026-031200-
NORTHEAST LOUISIANA

CITY           SKY/WX    TMP DP  RH WIND       PRES   REMARKS
TALLULAH/VBURG MOCLDY    78  73  84 NE3       29.96S
VIDALIA        PTSUNNY   74  73  95 CALM      29.94F
$$



USA.gov is the U.S. government's official web portal to all federal, state and local government web resources and services.